GW2624 Weather Reports


time (UTC)temp
C
wind
direction
speed
KPH
gust
KPH
rain 1hr
cm
rain 24hr
cm
rain mn
cm
humidity
%
barometer
mb
20260506081904 3 144 1.6 4.8 0.00 0.00 0.00 86 1007.2
20260506081404 3 144 3.2 4.8 0.00 0.00 0.00 86 1007.2
20260506080904 3 146 3.2 4.8 0.00 0.00 0.00 86 1007.2
20260506073404 4 142 3.2 4.8 0.00 0.00 0.00 85 1007.4
20260506072404 4 155 3.2 4.8 0.00 0.00 0.00 85 1007.3
20260506071904 4 148 1.6 4.8 0.00 0.00 0.00 85 1007.1
20260506070404 5 148 3.2 4.8 0.00 0.00 0.00 85 1007.0
20260506061404 5 145 3.2 4.8 0.00 0.00 0.00 85 1006.5
20260506051403 6 182 1.6 8.0 0.00 0.00 0.00 84 1007.4
20260506050904 6 288 1.6 8.0 0.00 0.00 0.00 84 1007.4
20260506050404 6 247 3.2 11.3 0.00 0.00 0.00 85 1007.4
20260506044404 6 207 0.0 4.8 0.00 0.00 0.00 85 1006.9
20260506043404 6 105 0.0 4.8 0.00 0.00 0.00 85 1006.0
20260506042904 6 105 1.6 4.8 0.00 0.00 0.00 85 1005.8
20260506042404 6 104 1.6 4.8 0.00 0.00 0.00 85 1005.5
20260506041903 5 52 0.0 3.2 0.00 0.00 0.00 85 1005.5
20260506041404 5 48 0.0 0.0 0.00 0.00 0.00 85 1005.5
20260506040904 5 48 0.0 3.2 0.00 0.00 0.00 84 1005.4
20260506040404 5 48 0.0 4.8 0.00 0.00 0.00 85 1005.6
20260506035904 5 46 1.6 14.5 0.00 0.00 0.00 84 1005.5
20260506034904 6 48 3.2 8.0 0.00 0.00 0.00 84 1005.7
20260506032906 6 289 0.0 4.8 0.00 0.00 0.00 84 1006.1
20260506030404 6 187 0.0 14.5 0.00 0.00 0.00 82 1005.5
20260506025903 6 198 1.6 27.4 0.00 0.00 0.00 81 1005.6
20260506025404 7 209 8.0 27.4 0.00 0.00 0.00 81 1005.7
20260506024405 7 68 0.0 0.0 0.00 0.00 0.00 83 1004.1
20260506023904 7 68 0.0 0.0 0.00 0.00 0.00 82 1003.6
20260506023403 7 68 0.0 4.8 0.00 0.00 0.00 82 1003.4
20260506022904 7 68 0.0 4.8 0.00 0.00 0.00 82 1003.3
20260506022404 7 68 1.6 4.8 0.00 0.00 0.00 82 1003.2
20260506021904 7 68 1.6 4.8 0.00 0.00 0.00 81 1003.3
20260506021404 7 70 1.6 4.8 0.00 0.00 0.00 80 1003.3
20260506020403 8 71 0.0 1.6 0.00 0.00 0.00 78 1003.3
20260506015404 8 71 1.6 11.3 0.00 0.00 0.00 75 1002.8
20260506014403 9 210 8.0 16.1 0.00 0.00 0.00 69 1003.0
20260506013404 11 323 3.2 4.8 0.00 0.00 0.00 58 1002.8
20260506012903 11 317 1.6 4.8 0.00 0.00 0.00 57 1002.3
20260506012404 11 316 3.2 8.0 0.00 0.00 0.00 55 1001.8
20260506011904 12 346 3.2 9.7 0.00 0.00 0.00 55 1001.6
20260506011404 12 250 3.2 9.7 0.00 0.00 0.00 53 1001.3
20260506010404 13 273 4.8 9.7 0.00 0.00 0.00 47 1001.2
20260506004904 13 311 3.2 16.1 0.00 0.00 0.00 45 1001.0
20260506003904 14 203 4.8 19.3 0.00 0.00 0.00 43 1000.8
20260506003403 14 193 8.0 19.3 0.00 0.00 0.00 42 1000.8
20260506002404 15 178 6.4 19.3 0.00 0.00 0.00 41 1000.7
20260506001403 15 213 8.0 19.3 0.00 0.00 0.00 40 1000.5
20260506000403 15 189 9.7 20.9 0.00 0.00 0.00 40 1000.5
20260505235404 15 221 9.7 19.3 0.00 0.00 0.00 44 1000.3
20260505234904 15 174 4.8 22.5 0.00 0.00 0.00 46 1000.4
20260505233905 15 193 6.4 22.5 0.00 0.00 0.00 45 1000.4
20260505233405 15 185 8.0 25.7 0.00 0.00 0.00 45 1000.3
20260505232905 15 165 12.9 25.7 0.00 0.00 0.00 44 1000.3
20260505232405 15 189 6.4 27.4 0.00 0.00 0.00 45 1000.4
20260505231905 14 0 9.7 27.4 0.00 0.00 0.00 44 1000.3
20260505230905 14 0 11.3 22.5 0.00 0.00 0.00 44 1000.2
20260505225405 15 159 9.7 25.7 0.00 0.00 0.00 43 1000.1
20260505224404 16 214 11.3 25.7 0.00 0.00 0.00 42 1000.0
20260505222905 15 175 8.0 19.3 0.00 0.00 0.00 43 999.9
20260505222404 15 168 9.7 19.3 0.00 0.00 0.00 43 1000.0
20260505221905 15 125 4.8 14.5 0.00 0.00 0.00 43 1000.0
20260505220904 15 214 4.8 12.9 0.00 0.00 0.00 43 1000.1
20260505214405 16 194 4.8 12.9 0.00 0.00 0.00 40 1000.3
20260505213405 16 255 4.8 19.3 0.00 0.00 0.00 43 1000.5
20260505212905 16 235 8.0 19.3 0.00 0.00 0.00 42 1000.6
20260505212405 16 225 4.8 14.5 0.00 0.00 0.00 43 1000.7
20260505211905 16 260 6.4 16.1 0.00 0.00 0.00 42 1000.7
20260505210905 16 220 4.8 19.3 0.00 0.00 0.00 43 1000.9
20260505210404 16 255 9.7 19.3 0.00 0.00 0.00 43 1000.9
20260505204905 15 216 4.8 14.5 0.00 0.00 0.00 46 1001.2
20260505202905 13 208 4.8 14.5 0.00 0.00 0.00 49 1001.5
20260505202405 14 176 6.4 11.3 0.00 0.00 0.00 50 1001.8
20260505201904 13 239 3.2 12.9 0.00 0.00 0.00 52 1001.7
20260505200905 13 189 4.8 19.3 0.00 0.00 0.00 55 1001.6
20260505194905 14 200 6.4 20.9 0.00 0.00 0.00 49 1001.6
20260505194405 14 258 4.8 19.3 0.00 0.00 0.00 52 1001.5
20260505193905 13 176 4.8 19.3 0.00 0.00 0.00 53 1001.5
20260505192904 13 235 4.8 12.9 0.00 0.00 0.00 59 1001.5
20260505192405 12 294 3.2 12.9 0.00 0.00 0.00 63 1001.5
20260505191905 12 235 3.2 12.9 0.00 0.00 0.00 68 1001.6
20260505190904 13 291 4.8 19.3 0.00 0.00 0.00 55 1001.8
20260505185905 15 193 8.0 19.3 0.00 0.00 0.00 39 1001.4
20260505185405 15 194 8.0 19.3 0.00 0.00 0.00 39 1001.0
20260505183405 15 159 11.3 20.9 0.00 0.00 0.00 38 1001.1
20260505181905 15 146 4.8 19.3 0.00 0.00 0.00 38 1001.0
20260505180905 15 232 4.8 16.1 0.00 0.00 0.00 39 1000.9
20260505175905 15 207 4.8 12.9 0.00 0.00 0.00 39 1001.0
20260505175405 15 165 3.2 9.7 0.00 0.00 0.00 40 1001.0
20260505174905 15 222 4.8 9.7 0.00 0.00 0.00 39 1001.3
20260505173405 15 49 3.2 12.9 0.00 0.00 0.00 39 1001.5
20260505170905 13 190 3.2 14.5 0.00 0.00 0.00 42 1001.7
20260505170405 13 124 4.8 11.3 0.00 0.00 0.00 41 1001.8
20260505165405 12 146 1.6 11.3 0.00 0.00 0.00 42 1002.0
20260505164404 12 191 4.8 14.5 0.00 0.00 0.00 43 1002.2
20260505163405 12 225 1.6 9.7 0.00 0.00 0.00 41 1002.3
20260505162905 12 193 3.2 12.9 0.00 0.00 0.00 42 1002.3
20260505162405 12 0 6.4 12.9 0.00 0.00 0.00 43 1002.3
20260505161404 12 0 1.6 4.8 0.00 0.00 0.00 42 1002.5
20260505160405 12 0 0.0 4.8 0.00 0.00 0.00 40 1002.5
20260505152405 12 213 3.2 8.0 0.00 0.00 0.00 46 1002.5
20260505151404 12 178 3.2 8.0 0.00 0.00 0.00 46 1002.5
20260505150905 12 196 3.2 8.0 0.00 0.00 0.00 46 1002.6
20260505150404 12 0 3.2 8.0 0.00 0.00 0.00 46 1002.7
20260505140405 13 212 3.2 11.3 0.00 0.00 0.00 46 1002.8
20260505124904 8 205 0.0 3.2 0.00 0.00 0.00 52 1003.0
20260505124405 8 205 0.0 11.3 0.00 0.00 0.00 51 1003.1
20260505122405 7 153 0.0 3.2 0.00 0.00 0.00 55 1002.8
20260505121905 7 153 1.6 4.8 0.00 0.00 0.00 54 1002.6
20260505120905 7 180 1.6 4.8 0.00 0.00 0.00 55 1002.5
20260505120405 7 200 1.6 4.8 0.00 0.00 0.00 54 1002.3
20260505115905 7 307 1.6 3.2 0.00 0.00 0.00 54 1002.4
20260505115405 7 307 1.6 4.8 0.00 0.00 0.00 54 1002.3
20260505114405 7 201 1.6 3.2 0.00 0.00 0.00 55 1002.5
20260505113404 8 179 1.6 3.2 0.00 0.00 0.00 55 1002.6
20260505112405 8 179 1.6 4.8 0.00 0.00 0.00 55 1002.6
20260505111905 8 179 1.6 4.8 0.00 0.00 0.00 55 1002.6
20260505111405 8 184 3.2 4.8 0.00 0.00 0.00 56 1002.5
20260505110404 8 229 0.0 3.2 0.00 0.00 0.00 55 1002.5
20260505100905 9 287 1.6 3.2 0.00 0.00 0.00 51 1002.1
20260505094405 9 270 0.0 1.6 0.00 0.00 0.00 48 1002.0
20260505093405 10 270 0.0 0.0 0.00 0.00 0.00 47 1001.8
20260505092404 10 270 0.0 1.6 0.00 0.00 0.00 47 1001.8
20260505091905 10 270 0.0 1.6 0.00 0.00 0.00 45 1001.7
20260505084905 11 270 0.0 3.2 0.00 0.00 0.00 41 1002.2
20260505083404 12 270 1.6 3.2 0.00 0.00 0.00 38 1002.4
20260505082904 12 270 1.6 3.2 0.00 0.00 0.00 38 1002.7